Wolf Point, MT

10:36 AM MST on February 24, 2017 (GMT -0700)
Clayton

Weather History for KOLF - April, 2014

Change the Weather History Date:

Sunday, April 27, 2014

  Actual Average Record
Temperature  
Mean Temperature 44 °F -  
Max Temperature 51 °F 64 °F 88 °F (2001)
Min Temperature 36 °F 32 °F 21 °F (2008)
Degree Days  
Heating Degree Days 21    
Cooling Degree Days 0    
Moisture  
Dew Point 37 °F    
Average Humidity 86    
Maximum Humidity 93    
Minimum Humidity 54    
Precipitation  
Precipitation 0.79 in 0.05 in 0.79 in (2014)
Month to date precipitation 0.97 0.79  
Year to date precipitation 1.35 1.77  
Sea Level Pressure  
Sea Level Pressure 29.62 in    
Wind  
Wind Speed 10 mph (ENE)    
Max Wind Speed 18 mph    
Max Gust Speed 22 mph    
Visibility 8 miles    
Events Rain    
T = Trace of Precipitation, MM = Missing Value Source: NWS Daily Summary

Daily Weather History Graph

Daily Weather History Graph

Search for Another Location

Airport or City:

Trip Planner

Search our weather history database for the weather conditions in past years. The results will help you decide how hot, cold, wet, or windy it might be!

Date:

Astronomy

Apr. 27, 2014 Rise Set
Actual Time 5:50 AM MDT 8:10 PM MDT
Civil Twilight 5:16 AM MDT 8:44 PM MDT
Nautical Twilight 4:33 AM MDT 9:27 PM MDT
Astronomical Twilight 3:45 AM MDT 10:16 PM MDT
Moon 5:01 AM MDT (4/27) 6:40 PM MDT (4/27)
Length of Visible Light 15h 28m
Length of Day
14h 19m
Waning Crescent, 3% of the Moon is Illuminated
Apr 27
Waning Crescent
Apr 29
New
May 6
First Quarter
May 14
Full
May 21
Last Quarter

Hourly Weather History & Observations

Time (MDT) Temp. Windchill Dew Point Humidity Pressure Visibility Wind Dir Wind Speed Gust Speed Precip Events Conditions
12:53 AM 51.1 °F - 35.1 °F 54% 29.54 in 10.0 mi East 18.4 mph - N/A   Overcast
1:53 AM 46.9 °F - 39.0 °F 74% 29.55 in 10.0 mi ESE 16.1 mph 21.9 mph 0.00 in Rain Light Rain
2:33 AM 45.0 °F 38.5 °F 39.9 °F 82% 29.54 in 8.0 mi East 13.8 mph - 0.01 in Rain Light Rain
2:53 AM 44.1 °F 37.4 °F 39.9 °F 85% 29.55 in 6.0 mi East 13.8 mph - 0.05 in Rain Rain
3:53 AM 43.0 °F 37.2 °F 39.9 °F 89% 29.56 in 8.0 mi East 10.4 mph - 0.06 in Rain Light Rain
4:53 AM 43.0 °F 36.8 °F 39.0 °F 86% 29.55 in 10.0 mi East 11.5 mph - 0.02 in Rain Light Rain
5:53 AM 43.0 °F 36.8 °F 37.9 °F 82% 29.58 in 9.0 mi East 11.5 mph - 0.01 in Rain Light Rain
6:53 AM 42.1 °F 36.6 °F 39.0 °F 89% 29.60 in 8.0 mi East 9.2 mph - 0.03 in Rain Light Rain
7:53 AM 42.1 °F 36.6 °F 39.0 °F 89% 29.61 in 5.0 mi East 9.2 mph - 0.01 in Rain Light Rain
8:36 AM 42.1 °F 37.7 °F 39.0 °F 89% 29.58 in 3.0 mi ENE 6.9 mph - 0.07 in Rain Rain
8:53 AM 42.1 °F 37.7 °F 39.0 °F 89% 29.60 in 3.0 mi ENE 6.9 mph - 0.11 in Rain Rain
8:55 AM 42.1 °F 37.1 °F 39.0 °F 89% 29.58 in 2.5 mi ENE 8.1 mph - 0.00 in Rain Rain
9:03 AM 42.1 °F 37.1 °F 39.0 °F 89% 29.58 in 2.0 mi ENE 8.1 mph - 0.02 in Rain Rain
9:16 AM 42.1 °F 37.1 °F 39.0 °F 89% 29.58 in 4.0 mi ENE 8.1 mph - 0.03 in Rain Light Rain
9:32 AM 42.1 °F 36.6 °F 39.0 °F 89% 29.58 in 3.0 mi East 9.2 mph - 0.05 in Rain Light Rain
9:44 AM 42.1 °F 36.6 °F 39.0 °F 89% 29.58 in 4.0 mi East 9.2 mph - 0.07 in Rain Light Rain
9:53 AM 42.1 °F 37.1 °F 39.0 °F 89% 29.61 in 3.0 mi East 8.1 mph - 0.10 in Rain Rain
10:53 AM 41.0 °F 36.4 °F 37.0 °F 86% 29.62 in 6.0 mi SSE 6.9 mph - 0.11 in Rain Light Rain
11:38 AM 42.1 °F 39.2 °F 37.0 °F 82% 29.59 in 8.0 mi South 4.6 mph - 0.05 in Rain Light Rain
11:53 AM 41.0 °F 35.8 °F 36.0 °F 82% 29.62 in 7.0 mi South 8.1 mph - 0.06 in Rain Light Rain
12:07 PM 39.9 °F 35.1 °F 37.0 °F 89% 29.59 in 4.0 mi SSW 6.9 mph - 0.02 in Rain Light Rain
12:24 PM 39.0 °F 34.8 °F 36.0 °F 89% 29.59 in 5.0 mi SSW 5.8 mph - 0.05 in Rain Light Rain
12:53 PM 37.9 °F 31.5 °F 35.1 °F 89% 29.63 in 7.0 mi SSW 9.2 mph - 0.09 in Rain Rain
1:40 PM 39.0 °F - 35.1 °F 86% 29.58 in 10.0 mi Calm Calm - 0.03 in Rain Light Rain
1:53 PM 39.2 °F - 35.6 °F 87% 29.59 in 10.0 mi Calm Calm - N/A   Overcast
2:11 PM 39.9 °F 37.8 °F 35.1 °F 83% 29.59 in 10.0 mi NE 3.5 mph - 0.00 in Rain Light Rain
2:46 PM 39.9 °F 37.8 °F 36.0 °F 86% 29.60 in 6.0 mi NNW 3.5 mph - 0.03 in Rain Light Rain
2:53 PM 39.9 °F 37.8 °F 36.0 °F 86% 29.64 in 5.0 mi NW 3.5 mph - 0.03 in Rain Light Rain
3:27 PM 39.9 °F 33.4 °F 37.0 °F 89% 29.60 in 10.0 mi WNW 10.4 mph - 0.01 in Rain Light Rain
3:38 PM 39.9 °F 34.5 °F 36.0 °F 86% 29.61 in 10.0 mi WNW 8.1 mph - 0.01 in Rain Light Rain
3:45 PM 39.9 °F 33.4 °F 36.0 °F 86% 29.60 in 10.0 mi NW 10.4 mph - 0.01 in Rain Light Rain
3:53 PM 39.9 °F 34.5 °F 37.0 °F 89% 29.65 in 10.0 mi NW 8.1 mph - 0.01 in Rain Light Rain
4:24 PM 42.1 °F 38.4 °F 37.9 °F 85% 29.62 in 3.0 mi WNW 5.8 mph - 0.05 in Rain Rain
4:41 PM 39.9 °F 32.1 °F 36.0 °F 86% 29.63 in 7.0 mi ENE 13.8 mph - 0.07 in Rain Light Rain
4:49 PM 39.2 °F 31.2 °F 37.4 °F 93% 29.63 in 10.0 mi ENE 13.8 mph - 0.07 in Rain Light Rain
4:53 PM 39.9 °F 32.9 °F 37.0 °F 89% 29.68 in 10.0 mi NE 11.5 mph - 0.07 in Rain Light Rain
5:22 PM 39.0 °F 31.8 °F 35.1 °F 86% 29.65 in 10.0 mi ENE 11.5 mph - 0.00 in Rain Light Rain
5:46 PM 39.0 °F 32.8 °F 35.1 °F 86% 29.65 in 10.0 mi NE 9.2 mph - 0.00 in   Overcast
5:53 PM 39.0 °F 33.4 °F 35.1 °F 86% 29.70 in 10.0 mi NE 8.1 mph - 0.00 in   Overcast
6:17 PM 39.0 °F 34.8 °F 35.1 °F 86% 29.66 in 10.0 mi NE 5.8 mph - N/A   Overcast
6:53 PM 39.9 °F 36.7 °F 36.0 °F 86% 29.70 in 10.0 mi NE 4.6 mph - N/A   Overcast
7:45 PM 39.0 °F 34.0 °F 35.1 °F 86% 29.68 in 10.0 mi ENE 6.9 mph - N/A   Overcast
7:53 PM 39.0 °F 33.4 °F 35.1 °F 86% 29.72 in 10.0 mi East 8.1 mph - N/A   Overcast
8:53 PM 37.9 °F 33.5 °F 34.0 °F 86% 29.71 in 10.0 mi ENE 5.8 mph - N/A   Overcast
9:22 PM 37.9 °F 33.5 °F 34.0 °F 86% 29.67 in 10.0 mi NE 5.8 mph - N/A   Overcast
9:53 PM 37.0 °F 31.0 °F 34.0 °F 89% 29.73 in 10.0 mi East 8.1 mph - N/A   Overcast
10:53 PM 37.4 °F 32.1 °F 33.8 °F 87% 29.67 in 10.0 mi ENE 6.9 mph - N/A   Overcast
11:53 PM 36.0 °F 30.3 °F 33.1 °F 89% 29.71 in 10.0 mi NE 6.9 mph - N/A   Overcast